Regional Weather Roundup
Issued by NWS

Home | Current Version | Previous Version | Graphics & Text | Print | Product List | Glossary Off
Versions: 1 2 3 4 5 6 7 8 9 10 11 12 13 14 15 16 17 18 19 20 21 22 23 24 25 26 27 28 29 30 31 32 33 34 35 36 37 38 39 40 41 42 43 44 45 46 47 48 49 50

000
ASUS45 KCYS 250710
RWRWY

WYOMING REGIONAL WEATHER ROUNDUP
NATIONAL WEATHER SERVICE CHEYENNE WY
1200 AM MST THU DEC 25 2014

NOTE:  "FAIR" INDICATES FEW OR NO CLOUDS BELOW 12,000 FEET
WITH NO SIGNIFICANT WEATHER AND/OR OBSTRUCTIONS TO VISIBILITY.

WYZ001-250800-
YELLOWSTONE NATIONAL PARK

CITY           SKY/WX    TMP DP  RH WIND       PRES   REMARKS
LK YELLOWSTONE   N/A     21  19  92 CALM      29.37F
W YELLOWSTONE  NOT AVBL

$$
WYZ002>013-054>058-071-098>099-250800-
NORTHERN WYOMING

CITY           SKY/WX    TMP DP  RH WIND       PRES   REMARKS
JACKSON        CLOUDY    28  28 100 SW9       29.36F WCI  20
CODY           CLOUDY    28  23  80 SW3       29.41S
GREYBULL       FLURRIES  28  24  85 NW6       29.41S WCI  22
WORLAND        CLOUDY    21  16  81 SW6       29.40S WCI  13
SHERIDAN       FLURRIES  33  29  85 NW8       29.46R WCI  26
BUFFALO        CLOUDY    31  28  89 N20       29.44R WCI  19
GILLETTE       CLOUDY    30  25  81 N10       29.38S WCI  21
HULETT           N/A    N/A N/A N/A MISG        N/A
NEWCASTLE      FAIR      34  25  69 S3        29.42S

$$
WYZ014>020-022>026-101>103-250800-
CENTRAL WYOMING

CITY           SKY/WX    TMP DP  RH WIND       PRES   REMARKS
BIG PINEY      CLOUDY    24  19  81 CALM      29.41F
PINEDALE       PTSUNNY   27  27 100 E6        29.41F WCI  20
DUBOIS         NOT AVBL
LANDER         MOCLDY    23  16  74 NW8       29.35F WCI  14
RIVERTON       FAIR      19  13  77 N8        29.37F WCI   9
CASPER         CLOUDY    35  21  56 SW25G38   29.40S WCI  23
DOUGLAS        CLOUDY    41  24  51 NE3       29.39F

$$
WYZ021-027>030-104>119-250800-
SOUTHERN WYOMING

CITY           SKY/WX    TMP DP  RH WIND       PRES   REMARKS
EVANSTON       LGT SNOW  33  28  81 SW21G36   29.40F WCI  21
KEMMERER       FAIR      30  27  86 SW12      29.40F WCI  21
FORT BRIDGER   FAIR      35  24  65 W3        29.43S
ROCK SPRINGS   FAIR      28  16  60 S17       29.42F WCI  16
DIXON          CLOUDY    34  21  58 S5        29.57F WCI  30
RAWLINS        FAIR      29  17  61 SW30G37   29.46F WCI  13
SARATOGA       CLOUDY    32  23  69 SE14      29.49F WCI  22
LARAMIE        FAIR      29  18  63 SW25G32   29.44F WCI  14
CHEYENNE       FAIR      35  17  47 S5        29.45F WCI  31
TORRINGTON     CLOUDY    37  23  56 E3        29.41F
PINE BLUFFS    CLOUDY    32  19  59 S10       29.45F WCI  24

$$



USA.gov is the U.S. government's official web portal to all federal, state and local government web resources and services.